This is the latest recevied weather packets stored in our database for station/object K1BWE-1. If no packets are shown the sender has not sent any weather packets the latest 10 day(s).
| Time | Temp. | Humidity | Pressure | Rain* | Wind** | Luminosity | Snow |
|---|---|---|---|---|---|---|---|
| 1777561228 | 19.44° C | 32% | 1014 hPa | 0 mm | - | 182 W/m² | - |
| 1777560927 | 19.44° C | 30% | 1013.8 hPa | 0 mm | - | 176 W/m² | - |
| 1777560624 | 18.89° C | 28% | 1014 hPa | 0 mm | - | 167 W/m² | - |
| 1777560322 | 18.33° C | 33% | 1014.2 hPa | 0 mm | - | 167 W/m² | - |
| 1777560020 | 17.78° C | 35% | 1013.8 hPa | 0 mm | - | 142 W/m² | - |
| 1777559715 | 17.22° C | 38% | 1014 hPa | 0 mm | - | 135 W/m² | - |
| 1777559412 | 16.67° C | 36% | 1013.6 hPa | 0 mm | - | 124 W/m² | - |
| 1777559108 | 16.11° C | 34% | 1013.9 hPa | 0 mm | - | 115 W/m² | - |
| 1777558798 | 16.11° C | 35% | 1013.8 hPa | 0 mm | - | 114 W/m² | - |
| 1777558494 | 15.56° C | 36% | 1013.9 hPa | 0 mm | - | 94 W/m² | - |
| 1777558190 | 15.56° C | 35% | 1014.1 hPa | 0 mm | - | 83 W/m² | - |
| 1777557886 | 15° C | 34% | 1013.9 hPa | 0 mm | - | 72 W/m² | - |
| 1777557584 | 15° C | 38% | 1013.8 hPa | 0 mm | - | 63 W/m² | - |
| 1777557279 | 14.44° C | 35% | 1013.7 hPa | 0 mm | - | 55 W/m² | - |
| 1777556976 | 14.44° C | 35% | 1013.4 hPa | 0 mm | - | 51 W/m² | - |
| 1777556672 | 14.44° C | 34% | 1013.6 hPa | 0 mm | - | 48 W/m² | - |
| 1777556368 | 14.44° C | 33% | 1013.4 hPa | 0 mm | - | 47 W/m² | - |
| 1777556063 | 14.44° C | 35% | 1013.6 hPa | 0 mm | - | 54 W/m² | - |
| 1777555763 | 14.44° C | 32% | 1013.6 hPa | 0 mm | - | 50 W/m² | - |
| 1777555460 | 14.44° C | 34% | 1013.6 hPa | 0 mm | - | 35 W/m² | - |
| 1777555155 | 14.44° C | 33% | 1013.3 hPa | 0 mm | - | 28 W/m² | - |
| 1777554853 | 15° C | 33% | 1013.4 hPa | 0 mm | - | 24 W/m² | - |
| 1777554550 | 14.44° C | 33% | 1013.2 hPa | 0 mm | - | 16 W/m² | - |
| 1777554247 | 14.44° C | 33% | 1013 hPa | 0 mm | - | 12 W/m² | - |
| 1777553944 | 15° C | 33% | 1013.3 hPa | 0 mm | - | 8 W/m² | - |
* Rain latest hour (hover to see other rain measurements)
** Current wind speed in m/s (hover to see current wind gust speed)